Grand Junction, CO

10:24 AM MDT on August 18, 2019 (GMT -0600)
Walker

Weather History for KGJT - May, 2019

Change the Weather History Date:

Wednesday, May 8, 2019

  Actual Average Record
Temperature  
Mean Temperature 49 °F 59 °F  
Max Temperature 57 °F 73 °F 90 °F (1989)
Min Temperature 41 °F 45 °F 33 °F (1979)
Degree Days  
Heating Degree Days 16 7  
Month to date heating degree days 84 62  
Since 1 July heating degree days 5481 5496  
Cooling Degree Days 0 1  
Month to date cooling degree days 0 5  
Year to date cooling degree days 1 8  
Moisture  
Dew Point 39 °F    
Average Humidity 65    
Maximum Humidity 86    
Minimum Humidity 43    
Precipitation  
Precipitation 0.08 in 0.03 in 0.65 in (1979)
Month to date precipitation 0.12 0.25  
Year to date precipitation 5.17 3.20  
Snow  
Snow 0.00 in 0.10 in 5.00 in (1979)
Month to date snowfall 0.0 0.1  
Since 1 July snowfall 17.4 19.1  
Snow Depth 0.00 in    
Sea Level Pressure  
Sea Level Pressure 29.77 in    
Wind  
Wind Speed 7 mph (NNW)    
Max Wind Speed 15 mph    
Max Gust Speed 18 mph    
Visibility 10 miles    
Events Rain    
T = Trace of Precipitation, MM = Missing Value Source: NWS Daily Summary

Daily Weather History Graph

Daily Weather History Graph

Search for Another Location

Airport or City:

Astronomy

May. 08, 2019 Rise Set
Actual Time 6:08 AM MDT 8:13 PM MDT
Civil Twilight 5:38 AM MDT 8:43 PM MDT
Nautical Twilight 5:02 AM MDT 9:19 PM MDT
Astronomical Twilight 4:23 AM MDT 9:58 PM MDT
Moon 9:08 AM MDT (5/8) No Moon Set
Length of Visible Light 15h 04m
Length of Day
14h 05m
Waxing Crescent, 16% of the Moon is Illuminated
May 8
Waxing Crescent
May 11
First Quarter
May 18
Full
May 26
Last Quarter
Jun 3
New

Hourly Weather History & Observations

Time (MDT) Temp. Windchill Dew Point Humidity Pressure Visibility Wind Dir Wind Speed Gust Speed Precip Events Conditions
12:53 AM 48.9 °F - 36.0 °F 61% 29.68 in 10.0 mi NW 5.8 mph - N/A   Partly Cloudy
1:53 AM 53.1 °F - 36.0 °F 52% 29.66 in 10.0 mi North 10.4 mph - N/A   Overcast
2:53 AM 54.0 °F - 37.0 °F 53% 29.65 in 10.0 mi NNW 8.1 mph - N/A   Overcast
3:53 AM 53.1 °F - 37.9 °F 57% 29.65 in 10.0 mi North 4.6 mph - N/A   Overcast
4:53 AM 52.0 °F - 37.9 °F 59% 29.67 in 10.0 mi Calm Calm - N/A   Mostly Cloudy
5:53 AM 51.1 °F - 39.0 °F 63% 29.67 in 10.0 mi North 6.9 mph - N/A   Overcast
6:53 AM 52.0 °F - 39.9 °F 63% 29.70 in 10.0 mi NNW 13.8 mph - 0.00 in Rain Light Rain
7:53 AM 52.0 °F - 39.9 °F 63% 29.73 in 10.0 mi NNW 10.4 mph - 0.01 in   Overcast
8:53 AM 48.9 °F - 42.1 °F 77% 29.75 in 10.0 mi North 6.9 mph - 0.01 in Rain Light Rain
9:53 AM 52.0 °F - 43.0 °F 71% 29.75 in 10.0 mi SE 5.8 mph - 0.01 in   Overcast
10:53 AM 48.0 °F - 43.0 °F 83% 29.79 in 5.0 mi North 10.4 mph - 0.00 in Rain Light Rain
11:53 AM 48.0 °F - 44.1 °F 86% 29.80 in 7.0 mi SE 10.4 mph - 0.05 in Rain Light Rain
12:53 PM 48.9 °F - 45.0 °F 86% 29.80 in 10.0 mi South 6.9 mph - 0.00 in   Overcast
1:53 PM 50.0 °F - 44.1 °F 80% 29.78 in 10.0 mi South 4.6 mph - 0.00 in   Overcast
2:11 PM 50.0 °F - 45.0 °F 83% 29.88 in 10.0 mi Variable 4.6 mph - N/A   Overcast
2:29 PM 51.1 °F - 44.1 °F 77% 29.88 in 10.0 mi Calm Calm - N/A   Overcast
2:46 PM 53.1 °F - 43.0 °F 69% 29.88 in 10.0 mi WNW 4.6 mph - N/A   Scattered Clouds
2:53 PM 54.0 °F - 43.0 °F 66% 29.78 in 10.0 mi WNW 3.5 mph - N/A   Partly Cloudy
3:53 PM 54.0 °F - 43.0 °F 66% 29.77 in 10.0 mi South 4.6 mph - N/A   Scattered Clouds
4:53 PM 55.9 °F - 43.0 °F 62% 29.76 in 10.0 mi Variable 4.6 mph - N/A   Mostly Cloudy
5:53 PM 55.9 °F - 36.0 °F 47% 29.75 in 10.0 mi NNE 8.1 mph - N/A   Overcast
6:53 PM 57.0 °F - 35.1 °F 44% 29.75 in 10.0 mi NNW 9.2 mph - N/A   Scattered Clouds
7:53 PM 54.0 °F - 34.0 °F 47% 29.78 in 10.0 mi NNE 8.1 mph - N/A   Overcast
8:53 PM 51.1 °F - 33.1 °F 50% 29.81 in 10.0 mi North 10.4 mph - N/A   Mostly Cloudy
9:53 PM 48.9 °F - 34.0 °F 56% 29.81 in 10.0 mi North 5.8 mph - N/A   Overcast
10:53 PM 44.1 °F 42.5 °F 34.0 °F 68% 29.85 in 10.0 mi West 3.5 mph - N/A   Clear
11:53 PM 43.0 °F - 34.0 °F 71% 29.86 in 10.0 mi Calm Calm - N/A   Partly Cloudy